Location: Newark
(40.3500°N, 15.2333°E)
Time: 23:57:33
(UTC+00:00)

Transit 2A - Visible Passes

Search period start: 27 January 2020 00:00
Search period end: 06 February 2020 00:00
Orbit: 601 x 958 km, 66.7° (Epoch: 27 January)

Date Brightness Start Highest point End Pass type
(mag) Time Alt. Az. Time Alt. Az. Time Alt. Az.
27 Jan 6.6 03:51:56 43° S 03:51:56 43° S 03:55:42 10° SSE visible
27 Jan 7.5 16:46:19 10° ESE 16:47:33 11° ESE 16:48:47 10° E visible
27 Jan 5.9 18:25:43 10° SW 18:29:49 63° W 18:29:49 63° W visible
28 Jan 7.8 03:19:38 23° SSE 03:19:38 23° SSE 03:21:39 10° SSE visible
28 Jan 8.0 05:00:11 10° WSW 05:00:11 10° WSW 05:00:32 10° WSW visible
28 Jan 5.4 17:51:33 10° SSW 17:55:59 80° ESE 17:57:25 41° NE visible
28 Jan 8.7 19:37:48 10° WNW 19:37:58 10° WNW 19:37:58 10° WNW visible
29 Jan 8.1 04:27:58 12° SW 04:27:58 12° SW 04:28:27 10° SSW visible
29 Jan 5.7 17:17:38 10° S 17:21:54 49° ESE 17:24:58 17° NE visible
29 Jan 8.0 19:02:19 10° W 19:05:18 18° NW 19:05:30 18° NW visible
30 Jan 6.4 16:43:59 10° S 16:47:53 31° ESE 16:51:42 10° NE visible
30 Jan 7.5 18:27:20 10° WSW 18:30:59 25° NW 18:32:58 18° NNW visible
31 Jan 6.8 17:52:39 10° WSW 17:56:44 37° NW 18:00:20 13° NNE visible
01 Feb 6.1 17:18:13 10° SW 17:22:33 59° WNW 17:26:51 10° NNE visible
02 Feb 5.5 16:44:00 10° SSW 16:48:25 88° ESE 16:52:47 10° NNE visible
02 Feb 8.3 18:30:41 10° WNW 18:32:12 12° NW 18:33:43 10° NNW visible
03 Feb 8.1 17:55:01 10° W 17:57:48 16° NW 18:00:36 10° N visible
04 Feb 7.7 17:19:56 10° WSW 17:23:28 23° NW 17:27:00 10° N visible
05 Feb 7.1 16:45:12 10° WSW 16:49:12 34° NW 16:53:12 10° NNE visible
